Regional Weather Roundup
Issued by NWS

Home | Current Version | Previous Version | Graphics & Text | Print | Product List | Glossary Off
Versions: 1 2 3 4 5 6 7 8 9 10 11 12 13 14 15 16 17 18 19 20 21 22 23 24 25 26 27 28 29 30 31 32 33 34 35 36 37 38 39 40 41 42 43 44 45 46 47 48 49 50

000
ASUS43 KMKX 231621
RWRWI

WISCONSIN REGIONAL WEATHER ROUNDUP
NATIONAL WEATHER SERVICE MILWAUKEE/SULLIVAN WI
1000 AM CST FRI FEB 23 2018

NOTE: "FAIR" INDICATES FEW OR NO CLOUDS BELOW 12,000 FEET WITH NO
SIGNIFICANT WEATHER AND/OR OBSTRUCTIONS TO VISIBILITY.

WIZ001-002-006>008-014>016-023>028-231700-
NORTHWEST WISCONSIN

CITY           SKY/WX    TMP DP  RH WIND       PRES   REMARKS
SUPERIOR ARPT  FLURRIES  28  25  87 SW6       30.04S WCI  22
ASHLAND        NOT AVBL
HAYWARD        NOT AVBL
SIREN          CLOUDY    27  25  90 W10       30.07R WCI  17
CUMBERLAND     CLOUDY    28  25  86 W15       30.05R WCI  17
RICE LAKE      CLOUDY    28  27  95 W10       30.06R WCI  19
CHETEK         CLOUDY    29  27  92 W8        30.06R WCI  21
LADYSMITH      CLOUDY    30  29  96 SW8       30.04R WCI  22
EAU CLAIRE     CLOUDY    30  28  92 W12       30.08R FOG     WCI  20
MENOMONIE      CLOUDY    30  27  89 W10       30.08S WCI  21
NEW RICHMOND   CLOUDY    27  24  89 W14G20    30.09R FOG     WCI  16
OSCEOLA        CLOUDY    28  28 100 W9        30.14R WCI  19
$$

WIZ003>005-009-010-017-018-231700-
NORTH CENTRAL WISCONSIN

CITY           SKY/WX    TMP DP  RH WIND       PRES   REMARKS
MANITOWISH WTR CLOUDY    28  28 100 SW9       29.95S WCI  19
ARBOR VITAE    CLOUDY    32  30  94 W9G16     29.96R WCI  24
WOODRUFF       CLOUDY    32  30  94 W9G16     29.96R WCI  24
RHINELANDER    NOT AVBL
EAGLE RIVER    CLOUDY    30  30  99 W8        29.95R FOG     WCI  23
LAND O LAKES   CLOUDY    31  29  94 SW6       29.95F FOG     WCI  25
PHILLIPS       CLOUDY    29  28  99 W8        29.99R WCI  21
TOMAHAWK       CLOUDY    31  29  93 W7        29.98S WCI  24
MEDFORD        CLOUDY    30  28  92 W12G17    30.01R WCI  21
MERRILL        CLOUDY    33  31  94 W9        30.00S WCI  25
$$

WIZ029-030-035-036-043>047-231700-
CENTRAL WISCONSIN

CITY           SKY/WX    TMP DP  RH WIND       PRES   REMARKS
WAUSAU         CLOUDY    33  30  88 W12       29.99S WCI  24
MOSINEE        CLOUDY    32  32 100 W10       30.02S WCI  24
MARSHFIELD     CLOUDY    32  30  92 W13       30.02R WCI  22
STEVENS POINT  CLOUDY    32  32 100 W12       30.03S WCI  23
WAUPACA        CLOUDY    37  36  96 SW10      30.05R WCI  29
WAUTOMA        CLOUDY    35  32  88 W12       30.07R WCI  27
WISC RAPIDS    CLOUDY    35  30  82 W12       30.07R WCI  27
CAMP DOUGLAS   CLOUDY    36  34  93 W16G22    30.08R WCI  26
$$

WIZ011>013-019>022-031-037>040-048>050-231700-
NORTHEAST WISCONSIN

CITY           SKY/WX    TMP DP  RH WIND       PRES   REMARKS
ANTIGO         CLOUDY    32  31  96 W9        29.98S WCI  24
SHAWANO        CLOUDY    36  35  94 SW8       30.01S WCI  30
OCONTO         CLOUDY    35  34  97 SW7       30.01R WCI  29
STURGEON BAY   CLOUDY    36  35  96 SW13      30.01S WCI  27
GREEN BAY      CLOUDY    38  36  92 W12       30.03R WCI  30
MANITOWOC      CLOUDY    37  36  96 SW9       30.04R FOG     WCI  30
APPLETON       NOT AVBL
CLINTONVILLE   CLOUDY    35  34  94 W9        30.03R WCI  28
OSHKOSH        CLOUDY    37  34  89 W10G18    30.04R WCI  30
$$

WIZ032>034-041-042-053>061-231700-
SOUTHWEST WISCONSIN

CITY           SKY/WX    TMP DP  RH WIND       PRES   REMARKS
LA CROSSE      PTSUNNY   34  27  75 W12       30.14R WCI  25
SPARTA         CLOUDY    32  31  96 W9        30.10R WCI  24
VIROQUA        CLOUDY    32  32 100 W12       30.10R WCI  23
BOSCOBEL       NOT AVBL
PRAIRIE DU CHI PTSUNNY   34  29  81 W15       30.16R WCI  25
PLATTEVILLE    CLOUDY    34  33  99 W10G21    30.15R WCI  26
$$

WIZ056-057-062-063-064-067-068-231700-
SOUTH CENTRAL WISCONSIN

CITY           SKY/WX    TMP DP  RH WIND       PRES   REMARKS
REEDSBURG      CLOUDY    34  34 100 W12       30.09S WCI  25
BARABOO/DELLS  CLOUDY    33  32  94 W10       30.09R WCI  25
LONE ROCK      NOT AVBL
MINERAL POINT  CLOUDY    34 N/A N/A W10       30.12R WCI  26
MADISON        NOT AVBL
MIDDLETON      CLOUDY    36  36  99 W13       30.10R WCI  27
WATERTOWN      CLOUDY    36  36 100 W13G21    30.08R WCI  28
MONROE         CLOUDY    34  34 100 W16G25    30.12R WCI  23
JANESVILLE     CLOUDY    37  37 100 W15       30.11R WCI  28
$$

WIZ051-052-058>065-066-070>072-231700-
SOUTHEAST WISCONSIN

CITY           SKY/WX    TMP DP  RH WIND       PRES   REMARKS
MILWAUKEE      CLOUDY    41  39  93 W9        30.06F FOG
WAUKESHA       CLOUDY    37  36  93 W17G24    30.08R WCI  28
MILWAUKEE/TIMM CLOUDY    39  36  87 W13       30.08R FOG     WCI  32
RACINE         CLOUDY    41  39  93 W15G25    30.09R
BURLINGTON     CLOUDY    39  37  90 W15G24    30.09R WCI  31
KENOSHA        CLOUDY    43  37  81 W21G30    30.08R
FOND DU LAC    CLOUDY    37  33  85 W13G21    30.07R WCI  29
SHEBOYGAN      CLOUDY    38  37  97 W14       30.05R WCI  30
WEST BEND      CLOUDY    37  37 100 W9        30.05R FOG     WCI  31
JUNEAU         CLOUDY    35  35  99 W12       30.08R WCI  27
$$

LSZ147-162-231700-
LAKE SUPERIOR

STATION/POSITION TIME  TEMP    WIND        PRES    WAVE
                       AIR SEA DIR/SP/G            HT/PER
                 (UTC) (F)     (DEG/KT/KT) (MB)    (FT/S)
DEVILS ISLAND    1600   28     240/ 10/ 13 1017.2R
SAXON HARBOR     1530   28     200/  3/  4 1015.6F
$$

LMZ867-665-643>646-231700-
LAKE MICHIGAN

STATION/POSITION TIME  TEMP    WIND        PRES    WAVE
                       AIR SEA DIR/SP/G            HT/PER
                 (UTC) (F)     (DEG/KT/KT) (MB)    (FT/S)
NORTHPORT PIER   1540   35                 1015.6F
KEWAUNEE LAKESHO 1554   36     210/  7/  9 1015.9F
SHEBOYGAN LAKESH 1500   35     200/  7/  8 1017.9R
PORT WASHINGTON  1540   38     250/  8/ 11 1019.0S
KENOSHA   LAKESH 1600   42     260/ 13/ 20 1019.0
$$

TC  - TEMPERATURE IN CELSIUS
VSB - VISIBILITY IN STATUTE MILES
WCI - WIND CHILL INDEX
HX  - HEAT INDEX





USA.gov is the U.S. government's official web portal to all federal, state and local government web resources and services.